Location: Unspecified
(0.0000°N, 0.0000°E)
Time: 03:16:43
(UTC+00:00)

STARLINK-2095 - Pass Details

Date: 24 February 2021
Orbit: 314 x 322 km, 53.1° (Epoch: 23 February)

Event Time Altitude Azimuth Distance (km) Brightness Sun altitude
Exits shadow 05:21:07 - 347° (NNW) 1,669 5.9 -12.8°
Reaches altitude 10° 05:22:16 10° 357° (N) 1,231 5.3 -12.6°
Maximum altitude 05:24:37 25° 56° (NE) 692 4.7 -12.0°
Drops below altitude 10° 05:26:58 10° 115° (ESE) 1,232 6.8 -11.4°
Sets 05:29:07 0° 129° (SE) 2,063 7.7 -10.9°
